Theta_e
305 305 304 304 304 304 304 304 304 304 304 304 303 303 301 299 298 297 298 298 297 298 298 298 298 298 299 309 309 309 310 309 308 308 316 317 317 319 321 321 321 321 321 321 320 320 320
304 304 305 306 305 304 303 303 303 303 303 303 303 303 303 301 299 299 299 299 298 298 299 299 298 298 304 307 306 309 308 309 310 315 318 317 317 318 319 320 321 321 321 321 321 320 320
304 303 303 302 305 305 304 304 303 302 302 303 302 302 303 301 298 298 299 299 299 299 299 299 299 298 305 303 306 308 309 310 310 312 314 317 318 319 320 321 320 320 321 321 321 320 321
301 302 303 304 302 303 304 304 304 302 302 302 302 302 301 301 299 298 298 298 298 299 299 300 299 299 307 303 307 308 308 308 309 311 314 314 316 318 319 319 320 320 321 321 321 321 322
301 301 301 303 304 303 302 303 304 303 302 302 301 301 301 301 299 297 297 297 297 303 304 302 300 306 308 309 309 309 308 308 309 309 311 314 313 316 318 319 320 320 321 322 322 322 322
300 300 300 300 302 303 302 302 302 303 302 301 301 300 300 300 301 299 297 297 299 307 308 310 308 311 311 310 308 309 313 314 310 309 309 309 310 311 313 316 320 320 321 321 322 322 322
300 299 300 300 300 300 301 300 300 301 302 301 300 301 300 300 301 300 298 299 309 310 311 312 312 310 311 310 309 310 310 315 309 308 310 309 310 310 311 314 316 318 319 320 321 322 322
299 297 298 298 301 301 300 300 300 300 301 299 299 299 300 299 300 299 297 308 308 307 307 307 308 309 310 309 309 310 309 316 317 318 317 314 311 311 311 313 316 316 317 318 319 321 321
298 298 299 300 301 300 299 300 299 299 301 299 298 299 299 299 300 297 306 308 306 307 308 307 307 307 307 308 308 308 309 310 314 316 317 317 316 313 313 311 313 317 318 318 319 321 321
299 299 299 299 299 299 298 299 299 300 301 299 298 298 299 298 299 305 308 307 307 308 309 308 310 310 310 310 311 310 310 310 311 315 317 317 316 315 316 316 313 317 318 318 319 320 323
297 296 296 296 297 297 297 298 299 299 300 299 298 298 297 298 302 306 307 306 307 308 308 312 310 310 311 309 311 311 310 309 311 315 315 315 315 314 316 315 317 316 317 318 320 321 321
297 296 297 296 296 296 296 297 297 297 299 298 298 298 297 298 300 301 304 305 307 309 307 307 311 311 312 311 311 313 312 310 309 309 311 314 314 315 315 316 316 317 317 318 319 320 323
295 295 296 296 297 297 297 297 297 297 299 298 298 297 297 299 302 305 305 306 309 308 307 307 310 311 312 313 312 311 313 311 310 308 309 310 312 314 316 316 316 316 318 320 321 323 324
295 295 296 296 295 295 295 297 297 297 298 298 297 297 298 298 300 303 304 307 310 308 308 308 310 312 313 311 314 313 314 312 311 310 310 312 311 312 314 315 316 316 318 319 320 327 328
294 294 295 295 295 295 294 295 297 298 298 297 297 298 299 299 301 302 304 306 306 307 308 308 310 309 311 311 312 315 315 315 314 313 314 315 313 313 311 312 315 317 317 317 319 320 323
293 294 295 295 294 294 294 295 296 298 297 297 298 299 300 300 301 302 304 304 305 306 307 309 310 310 309 310 312 314 314 315 316 315 316 315 316 315 312 310 312 314 317 318 319 319 318
293 294 294 294 293 295 295 295 296 296 296 297 297 299 299 300 302 302 304 303 305 304 306 309 309 311 312 313 312 313 316 315 315 315 315 318 316 315 314 310 311 311 311 312 313 316 318
293 294 293 293 293 294 295 296 296 296 296 297 297 301 300 301 303 303 305 303 303 304 305 306 308 309 311 310 311 311 311 314 312 313 314 315 318 318 315 315 314 314 312 311 314 316 320
293 294 294 295 295 295 295 294 296 296 295 297 298 299 300 303 304 303 303 303 303 304 305 306 308 306 307 307 308 309 310 311 310 311 310 310 315 317 316 315 315 316 316 315 315 316 318
293 294 294 294 293 293 294 294 294 294 294 295 298 301 299 302 302 304 304 303 303 303 305 306 308 308 306 306 307 308 309 310 310 310 307 308 310 312 315 317 315 316 318 316 317 319 319
294 295 295 295 295 295 294 294 295 295 295 295 297 301 301 303 304 303 303 303 305 304 304 305 308 308 307 306 306 307 308 309 310 310 310 310 310 310 310 310 310 311 312 316 318 317 318
296 296 297 298 297 296 296 295 295 295 295 296 297 298 299 300 302 303 303 303 303 304 305 307 306 307 307 308 308 308 310 311 311 311 311 312 314 312 312 312 312 312 312 312 315 316 316
297 297 298 298 298 298 298 298 297 296 296 297 297 297 298 300 302 302 304 304 303 303 303 304 306 307 307 308 307 308 308 309 310 310 310 311 312 313 313 312 312 314 314 313 312 314 315
297 297 298 298 298 298 299 299 298 298 297 297 297 297 298 301 302 302 302 303 304 304 305 305 305 307 307 308 308 307 307 308 308 309 309 310 311 312 313 313 313 312 312 317 316 317 317
297 297 297 297 297 297 298 298 299 298 299 297 297 297 299 301 300 302 303 304 304 304 305 305 305 307 307 308 308 308 308 309 309 309 309 310 310 312 313 313 312 312 312 314 316 316 317
297 298 297 296 296 296 297 298 298 296 297 298 297 298 299 301 301 300 302 302 304 306 306 305 306 306 307 307 307 308 309 310 311 311 310 310 310 312 313 312 312 315 317 316 316 318 317
298 299 299 299 296 295 296 296 297 297 296 297 298 298 298 299 301 301 303 304 303 304 306 306 307 307 307 308 308 308 309 309 312 312 312 312 312 312 313 312 312 313 314 314 319 318 315
300 300 300 300 300 296 295 296 297 297 297 297 298 298 298 298 300 301 302 303 304 305 307 307 307 305 305 308 307 308 310 311 310 310 314 312 313 313 313 312 312 315 315 317 315 314 314
300 300 300 301 301 300 297 295 296 297 297 297 298 298 298 298 300 301 302 304 304 305 304 305 307 306 306 307 308 309 310 313 310 310 311 314 312 314 311 312 314 311 313 311 311 311 310
Wind_Speed
17 15 15 16 18 18 16 16 16 15 16 17 17 17 17 18 18 18 19 19 19 20 20 21 21 21 21 7 24 16 23 20 22 13 13 17 20 24 22 22 25 24 24 29 29 28 27
20 19 17 19 17 16 17 18 17 18 19 20 20 19 19 19 19 19 20 21 20 20 20 21 20 19 14 16 13 7 13 12 14 13 15 16 19 22 22 23 22 29 25 26 30 27 25
18 21 21 22 19 18 18 17 18 19 20 19 21 21 21 20 19 21 22 23 22 20 20 20 19 17 14 35 12 15 10 12 11 14 20 19 18 20 17 17 27 26 22 22 22 24 20
24 24 20 20 20 23 20 18 19 19 20 19 21 23 23 20 20 21 24 24 22 21 21 18 15 10 14 20 15 18 18 22 21 14 15 18 17 23 24 23 26 16 17 19 21 21 25
24 24 26 22 20 23 23 23 20 20 19 20 22 23 24 20 21 22 24 25 22 17 19 14 9 9 13 12 11 11 14 21 17 20 17 12 8 13 15 15 16 17 19 23 22 19 22
25 25 25 27 25 22 22 24 27 22 22 22 24 24 26 24 21 21 24 24 16 16 10 4 8 8 15 11 4 7 7 12 17 17 20 20 10 13 14 14 17 20 22 24 23 19 21
26 27 24 23 25 28 27 25 23 26 21 19 22 24 26 24 18 19 21 21 8 5 10 13 8 16 10 7 7 10 9 6 12 17 16 22 15 19 22 21 25 22 24 25 22 25 22
30 25 24 25 24 21 20 21 23 21 19 19 21 23 23 23 16 14 12 6 11 9 16 24 35 39 39 26 27 26 12 11 15 16 15 16 21 21 23 23 23 25 22 27 22 28 22
23 23 25 24 20 20 19 18 21 21 20 17 17 19 22 21 14 9 6 10 9 12 10 20 37 32 29 26 34 33 23 22 18 18 19 20 18 23 21 23 25 23 24 18 23 26 25
24 22 24 26 16 20 22 23 21 20 18 17 17 16 19 15 11 8 8 8 4 10 6 8 9 7 18 13 8 21 29 26 19 23 19 20 20 21 16 19 24 22 18 20 20 20 18
30 30 32 33 30 25 24 21 18 16 17 17 16 15 19 13 10 5 4 2 7 8 6 12 9 10 13 16 3 4 17 18 22 21 15 23 21 20 20 21 15 21 13 14 19 19 22
26 27 24 21 24 26 24 24 22 19 17 17 15 15 16 11 13 16 9 7 6 6 10 7 11 11 13 16 10 8 7 14 10 20 22 22 24 19 20 16 20 15 8 14 17 14 17
25 25 22 24 23 19 21 20 18 18 15 16 13 16 17 12 16 6 10 7 5 8 6 7 10 12 14 12 12 11 9 10 9 8 18 23 24 23 10 12 16 14 12 9 5 6 12
25 24 21 19 21 22 27 20 17 17 15 13 15 16 16 16 17 11 11 6 11 11 16 11 4 10 15 12 12 15 12 11 16 15 11 12 14 22 16 20 16 17 17 9 12 7 5
20 19 21 23 23 19 21 26 18 13 13 13 14 17 16 17 15 15 9 9 10 14 14 16 12 12 15 16 5 12 14 14 12 18 13 9 11 14 20 25 21 17 18 16 16 18 4
23 23 23 20 21 22 21 20 23 12 11 11 9 15 21 16 15 15 6 13 17 25 11 19 16 10 17 18 14 13 14 11 12 2 4 8 10 9 9 6 22 17 15 14 11 16 16
24 23 24 25 22 20 19 18 18 18 12 9 8 7 14 18 16 12 8 16 14 33 7 7 11 9 14 5 8 14 7 9 2 5 4 11 9 13 4 9 12 12 16 13 11 13 10
24 22 21 19 19 22 22 18 16 13 12 12 9 4 5 19 11 7 12 18 20 24 22 8 19 5 8 8 12 4 2 8 8 6 4 9 4 7 15 9 13 17 18 17 8 12 8
23 24 24 23 23 22 19 17 17 16 16 11 8 17 14 15 7 12 14 17 21 18 16 10 11 16 12 9 6 5 7 11 7 8 8 11 3 5 11 9 8 7 9 16 17 13 16
25 25 24 23 23 22 21 20 19 19 19 18 7 3 17 14 17 14 14 17 18 20 10 20 16 19 17 12 10 7 5 5 6 4 8 4 7 9 8 5 8 11 18 14 13 9 11
28 29 30 30 29 27 25 23 21 21 20 20 12 6 9 6 13 15 16 13 10 16 25 7 7 17 15 11 11 13 12 9 5 2 4 5 10 13 18 17 13 17 16 16 13 11 11
30 29 29 29 30 30 31 29 27 25 23 27 8 6 12 18 18 13 18 18 19 16 9 9 18 18 15 14 14 9 9 7 5 4 6 1 5 10 14 16 16 17 17 18 17 16 16
24 23 23 22 25 25 27 31 31 30 31 24 29 18 13 10 14 14 12 12 16 15 16 13 19 15 10 11 14 10 3 10 11 10 7 4 4 5 11 13 14 13 14 17 19 17 15
25 25 24 23 19 20 19 25 30 34 40 38 29 19 12 10 11 15 19 18 17 18 15 12 23 18 15 1 7 11 14 16 16 14 13 8 8 5 5 9 7 9 15 6 7 7 11
26 26 25 23 22 21 20 21 20 22 25 45 31 30 21 9 16 19 19 14 17 21 15 16 14 3 8 2 1 6 7 9 18 19 18 15 11 3 3 6 14 18 14 11 8 2 15
29 27 28 28 26 25 25 24 24 24 22 30 45 31 13 9 18 27 19 21 11 11 12 15 11 9 4 3 1 4 5 8 5 6 21 18 13 9 5 5 5 2 11 14 2 6 12
29 27 24 25 26 26 26 26 28 27 25 25 21 36 32 11 15 22 17 16 21 16 8 13 7 6 5 5 4 6 11 11 6 5 11 14 12 13 9 8 7 6 8 29 4 4 12
24 22 21 19 23 27 29 27 27 29 29 29 26 26 33 7 19 21 27 23 22 4 8 5 6 2 2 4 4 7 5 4 8 3 9 9 9 7 8 8 11 20 3 2 5 8 15
24 24 24 21 22 25 29 31 29 29 27 29 24 23 22 18 10 11 25 24 15 11 14 9 5 7 9 5 7 3 4 4 6 5 8 7 8 5 4 4 7 19 11 14 11 12 16
Wind_Direction
299 303 298 292 298 292 300 299 300 305 309 308 309 305 300 299 301 303 306 307 310 315 313 310 311 314 323 269 253 276 288 291 282 280 229 227 234 232 240 244 250 253 250 258 266 261 269
286 289 291 293 294 303 293 304 295 297 301 300 301 300 300 300 301 304 304 306 311 313 311 311 309 308 310 267 284 272 278 267 268 245 241 233 239 237 251 251 251 265 263 263 263 265 261
287 285 285 282 285 288 287 290 294 301 295 298 301 299 299 297 296 299 302 304 308 309 306 303 301 297 272 254 248 241 244 268 255 252 245 243 251 257 256 263 259 274 275 273 266 266 266
282 281 278 280 283 274 282 285 286 292 303 294 295 302 301 298 297 296 300 304 307 309 300 297 287 274 255 288 274 265 262 260 247 251 252 249 265 256 258 267 282 259 263 260 255 253 255
288 286 277 276 274 276 272 279 286 286 289 295 300 300 306 303 298 298 301 304 307 306 299 286 272 226 263 292 266 276 260 246 246 241 240 239 260 257 250 248 258 256 254 256 256 244 261
285 286 288 275 272 275 274 273 278 283 283 287 299 292 300 302 299 302 307 308 311 291 292 261 224 232 254 258 260 271 248 249 234 230 230 232 239 236 232 242 237 240 246 247 256 259 259
290 289 279 280 274 275 271 280 277 270 282 286 298 294 301 299 296 306 318 341 348 285 242 233 221 224 257 274 268 281 244 231 209 215 224 216 226 230 224 229 243 261 271 273 278 276 256
284 291 279 269 277 271 276 272 267 269 270 288 300 289 294 295 295 304 309 295 332 306 293 266 254 252 256 263 273 258 245 210 209 226 212 227 227 239 238 245 244 243 249 261 274 280 286
283 271 277 278 267 269 274 279 274 261 267 288 296 293 289 292 297 293 302 288 309 319 269 278 248 246 245 241 243 249 236 234 233 226 237 233 243 224 232 241 243 243 249 252 255 286 285
281 278 276 277 279 279 277 274 274 268 263 272 292 303 300 286 289 289 286 227 335 332 281 259 197 235 206 215 255 238 228 229 232 243 237 243 255 248 242 234 240 250 238 258 276 272 277
290 291 287 283 284 283 277 275 272 273 269 268 280 284 290 273 254 290 60 33 325 310 284 126 136 155 170 191 68 151 205 222 236 235 232 250 248 261 250 253 248 252 225 223 253 266 268
281 276 277 276 272 274 268 276 271 267 267 269 272 283 298 269 271 246 280 301 271 228 241 222 142 184 189 211 230 130 175 216 248 243 259 260 263 275 247 251 247 268 256 213 248 236 256
287 280 278 275 266 274 272 276 261 262 255 262 269 281 284 258 243 252 252 233 221 234 284 241 181 192 209 196 209 195 177 185 203 202 231 243 249 263 229 258 276 210 231 225 242 234 254
301 298 275 279 288 284 274 273 269 253 255 258 275 287 277 258 251 258 273 221 234 255 220 303 334 191 224 224 202 199 200 216 210 215 273 244 236 229 238 220 231 211 212 208 228 229 327
294 288 283 279 276 271 269 268 272 241 239 270 277 282 271 252 237 237 242 230 240 241 305 310 288 242 238 241 239 195 211 223 230 205 239 272 238 259 208 222 222 204 213 231 271 291 238
297 290 284 282 290 275 269 262 258 246 264 267 277 280 263 243 226 216 234 235 260 256 320 322 289 246 233 200 195 212 194 214 161 285 335 280 303 264 190 206 222 241 211 219 217 253 272
293 288 284 279 268 268 262 258 256 253 260 239 274 275 263 222 211 206 225 235 258 261 295 296 293 354 325 13 227 193 115 339 241 97 330 310 245 273 218 196 230 204 240 244 265 246 252
284 281 283 278 261 269 270 261 248 237 229 218 236 240 266 183 198 214 228 229 248 263 289 269 276 245 288 332 272 302 46 95 51 7 298 32 320 272 260 233 212 211 212 227 229 245 243
287 284 281 273 268 269 270 259 245 242 230 230 233 244 257 202 220 228 240 244 244 259 277 261 271 271 260 294 297 294 307 77 68 1 39 360 298 289 263 251 267 279 242 208 220 250 264
289 284 281 276 270 266 261 254 243 237 230 212 240 243 235 224 243 262 252 248 244 223 255 262 287 306 271 267 280 294 305 59 82 65 73 352 275 283 280 316 302 300 307 251 250 231 236
285 281 277 273 269 265 258 253 242 227 220 206 220 237 239 209 232 239 247 255 269 262 224 231 298 265 274 265 255 252 264 249 240 34 279 231 262 276 282 286 279 277 277 287 277 261 260
286 280 276 271 264 258 253 247 239 230 215 211 215 218 247 254 247 234 235 247 252 240 208 275 247 250 239 233 253 280 330 313 295 279 271 13 273 280 276 279 280 278 275 271 265 267 270
292 285 283 279 275 261 247 242 238 230 214 218 222 231 258 270 262 264 236 251 246 251 258 216 266 250 240 261 297 329 301 277 250 282 291 297 288 294 269 275 286 283 271 251 253 261 267
290 286 282 281 266 260 255 240 234 232 222 213 218 213 223 245 248 257 259 250 247 262 252 240 205 242 256 37 297 292 278 259 255 249 241 236 253 266 290 313 259 246 260 345 280 283 301
290 284 279 272 263 255 249 244 226 221 223 216 208 203 216 238 236 252 247 254 278 266 251 263 263 137 215 171 280 277 249 252 244 236 225 218 230 250 242 252 280 290 290 261 245 217 18
291 283 276 266 259 253 245 238 230 227 229 215 214 199 201 223 230 239 256 261 253 267 272 262 61 203 174 59 28 250 261 225 205 216 203 202 211 222 234 246 257 43 358 342 106 215 9
289 289 271 262 253 245 239 236 230 226 224 224 224 216 219 235 239 229 240 252 256 239 250 249 126 169 174 179 217 264 260 271 254 187 180 193 188 216 230 247 279 351 22 302 230 352 337
296 281 281 272 250 240 234 231 227 225 222 217 220 227 209 230 254 240 249 256 264 234 243 141 124 123 100 182 223 244 252 238 268 246 143 188 187 197 231 249 253 8 69 27 356 6 358
286 280 276 264 257 249 231 226 222 221 216 211 215 222 229 233 256 236 249 257 267 268 233 171 348 146 167 201 226 261 267 307 320 268 172 177 213 177 208 249 65 37 355 59 36 19 360